RH
15 14 13 12 12 11 11 13 15 18 17 15 14 15 16 18 18 17 16 15 16 16 16 16 15 15 14 14 14 13 13 12 11 11 11 10 11 12 12 12 12 12 11 11 11 11 10 9 10 12 14 14 13 12 11 13 13 12 12 12 13 14 13 11 12 12 11 11 12 12 11 11 10 10 11 10 11 10 15 24 25 27 28 26 28 33 39 41
17 16 15 13 13 12 12 13 16 18 17 15 14 15 16 18 19 19 17 15 15 15 15 15 15 15 14 14 13 13 12 12 12 11 11 11 11 12 13 13 13 13 12 12 11 11 11 11 11 13 15 13 12 11 11 12 13 12 12 12 12 13 12 12 12 11 11 11 12 12 12 12 11 10 10 9 10 9 15 26 29 29 29 27 31 35 38 41
18 17 16 15 14 13 13 14 16 18 18 16 15 14 16 18 20 20 19 17 15 14 14 14 15 14 14 14 13 13 12 11 11 10 10 10 11 11 12 12 12 13 13 12 11 12 14 13 13 14 14 13 11 11 11 11 12 11 11 12 12 11 11 11 12 11 11 11 11 12 12 12 10 9 10 10 9 9 16 26 28 31 36 37 37 38 41 45
20 19 18 17 16 15 13 14 17 19 19 17 15 15 16 17 19 22 21 18 15 14 13 13 14 14 14 14 13 13 12 13 12 12 12 11 11 12 12 12 12 12 13 12 13 15 15 14 14 15 13 13 11 10 10 11 12 11 9 11 11 11 12 12 11 12 11 11 11 11 11 11 9 9 10 10 9 10 15 23 26 29 37 43 43 44 45 45
22 20 19 19 17 16 14 15 17 19 20 17 15 15 15 16 18 21 23 21 17 14 13 13 13 13 14 13 13 13 13 18 19 16 15 14 13 13 12 12 11 12 11 12 14 16 16 14 16 18 14 13 12 10 10 10 12 12 9 10 11 11 12 12 11 12 11 11 11 11 11 10 9 9 10 10 9 9 14 20 26 27 31 40 44 44 45 47
23 22 21 20 18 17 15 15 18 19 20 17 16 16 16 16 17 19 23 23 20 15 14 13 12 12 12 13 13 12 14 21 24 21 18 16 14 13 12 12 12 11 10 12 15 15 15 14 16 19 16 13 12 10 10 10 12 12 10 10 12 11 11 12 11 13 12 10 11 10 10 10 9 10 10 10 8 9 14 19 24 25 26 37 41 41 44 47
24 23 22 20 19 18 16 16 19 19 19 17 15 16 16 16 18 18 19 23 22 18 14 12 12 12 12 13 12 13 16 18 20 20 20 19 16 14 12 12 12 10 9 12 15 15 15 14 15 18 16 13 12 11 11 11 12 11 10 10 11 12 11 12 12 12 12 10 10 10 10 10 10 10 9 10 9 9 14 18 22 25 27 34 37 38 41 40
24 23 22 21 20 18 17 18 20 19 18 16 15 16 16 17 18 18 17 19 22 20 16 13 12 12 12 12 12 17 19 16 15 18 21 20 18 16 13 11 11 10 8 12 15 15 16 14 14 18 16 12 12 12 12 12 12 11 9 9 10 12 12 11 11 12 11 9 9 9 8 9 8 9 9 9 8 8 14 18 22 29 30 30 31 33 35 35
24 23 22 21 20 19 19 20 21 20 17 15 15 16 16 16 17 18 16 15 18 20 18 15 13 12 12 11 14 21 20 16 16 16 18 18 17 16 13 11 11 9 9 12 15 15 15 14 14 16 14 13 13 14 14 13 12 11 10 9 9 10 11 11 11 10 10 9 8 8 8 8 8 8 8 8 7 7 13 18 23 31 31 28 29 30 33 34
23 23 22 21 21 21 21 22 22 19 17 15 15 16 17 16 16 17 16 13 14 16 17 17 14 13 13 12 19 24 20 20 20 17 16 15 15 15 12 11 11 8 9 12 13 14 14 13 14 14 14 16 16 15 15 13 12 12 12 11 10 10 10 10 10 9 9 9 8 8 8 9 9 9 8 7 7 7 11 17 25 30 27 25 28 32 37 38
23 23 23 22 23 24 24 24 22 19 16 16 16 17 17 16 16 17 16 14 12 12 13 13 13 13 13 14 22 24 19 21 22 17 17 15 13 13 10 11 11 8 8 10 11 12 13 13 16 16 15 16 16 14 14 13 12 12 13 13 12 11 10 10 9 9 9 9 9 9 9 10 9 9 8 7 7 8 10 17 25 27 24 23 28 34 36 37
23 23 24 25 26 27 27 25 21 18 17 17 17 17 18 17 17 17 16 14 11 11 11 11 11 11 11 13 17 17 17 21 21 17 17 15 12 10 9 10 10 9 9 10 11 11 13 15 16 17 16 15 15 14 13 12 12 13 13 13 13 11 10 10 10 9 9 10 10 10 10 10 9 8 7 7 8 9 11 20 25 24 24 26 31 35 33 35
24 25 27 28 29 29 28 25 21 19 18 18 18 18 19 18 18 17 16 14 12 11 10 10 10 9 12 15 12 13 16 18 18 17 17 15 10 10 10 10 10 11 12 12 13 14 15 16 15 15 15 13 13 13 13 12 11 13 13 12 12 11 10 9 10 10 10 10 11 11 12 12 9 7 7 8 9 9 12 22 25 23 25 29 34 34 29 33
27 28 31 31 32 31 30 26 22 21 20 20 19 20 20 19 18 16 14 13 11 11 10 10 10 9 13 16 11 12 14 14 15 16 16 14 10 10 12 11 11 13 14 13 16 17 15 16 14 13 13 12 12 12 12 12 12 12 12 11 12 12 11 10 11 11 11 11 11 12 13 12 9 8 8 9 10 9 13 23 25 25 27 30 32 31 30 32
32 33 34 34 34 33 30 26 24 23 22 21 21 21 21 19 17 15 14 12 11 11 10 10 10 10 16 15 10 13 13 11 12 13 15 13 12 11 11 12 11 12 14 13 16 17 15 14 13 13 13 12 12 12 12 13 14 12 12 13 12 12 12 11 11 11 11 11 12 13 13 12 9 8 8 8 9 9 15 24 26 27 28 27 29 31 34 36
38 37 37 37 35 35 31 28 27 25 24 22 22 23 21 19 16 14 13 12 13 13 11 14 13 12 20 18 11 14 13 10 11 12 13 13 11 12 11 12 10 10 12 13 14 15 14 13 12 12 12 13 13 13 14 15 15 14 13 15 14 12 12 12 12 11 12 13 12 13 13 13 11 9 9 8 9 10 14 23 26 26 28 27 28 34 38 39
43 41 38 38 37 37 33 31 30 27 26 24 23 23 22 19 17 15 14 14 16 15 14 20 22 18 19 17 13 15 14 12 11 11 12 12 12 14 14 12 10 10 11 13 14 13 13 12 12 12 11 13 14 13 15 16 17 15 14 15 16 14 13 14 14 11 13 14 12 12 13 14 12 9 10 9 9 11 15 23 26 25 26 27 28 35 39 40
44 43 41 40 39 38 36 34 33 30 27 25 25 25 22 19 17 15 16 18 20 21 19 21 26 27 23 17 15 16 15 13 11 10 12 12 13 16 17 14 12 12 11 12 13 13 12 10 11 12 12 12 13 13 15 15 15 16 17 18 19 18 16 16 16 12 14 16 14 14 13 15 13 10 11 10 11 16 18 23 26 24 25 27 28 33 38 39
45 45 43 41 41 40 38 36 34 31 28 27 27 25 22 22 24 25 22 23 27 28 28 27 27 27 23 19 16 16 17 16 12 10 12 12 13 18 21 19 15 14 15 14 13 13 13 12 12 12 12 12 11 12 13 12 13 16 18 18 19 20 20 20 20 17 17 18 17 17 15 15 15 13 12 12 14 19 20 20 24 25 25 27 28 31 36 37
46 45 44 43 42 41 39 38 36 32 29 29 28 24 27 32 37 41 35 30 29 26 26 28 26 21 19 21 21 20 20 18 15 12 12 13 14 18 22 22 18 18 18 17 17 16 14 16 15 13 11 11 11 11 11 13 15 16 16 18 19 21 24 25 23 20 20 21 21 19 17 16 16 15 14 13 13 17 18 16 21 26 26 26 26 28 32 35
48 45 46 45 43 42 41 40 37 33 30 30 28 26 32 37 37 42 40 32 30 25 23 24 24 22 21 23 25 25 22 20 18 14 12 13 14 18 21 22 21 20 18 18 21 20 17 19 17 12 10 10 10 13 13 13 17 18 17 18 18 21 28 31 26 24 24 25 25 21 20 19 18 17 15 13 13 15 15 14 18 25 26 26 26 25 27 32
51 48 47 46 44 43 41 40 37 34 32 31 29 25 31 36 35 37 36 33 32 30 28 26 25 25 24 25 29 30 27 24 21 17 14 13 14 16 18 19 20 20 18 19 24 23 20 19 15 10 10 11 11 14 16 15 16 19 18 18 19 21 30 32 27 25 25 25 26 23 23 23 20 18 17 14 14 14 13 12 16 23 25 26 26 24 24 27
52 49 49 48 44 43 42 41 37 34 33 31 28 25 30 36 34 33 34 34 32 30 29 27 26 26 24 27 30 31 30 27 24 21 16 15 14 14 16 17 18 21 21 22 24 24 21 17 15 14 14 15 14 17 19 17 18 20 20 21 21 21 29 32 28 25 23 25 26 24 25 26 21 19 18 16 15 14 14 12 13 18 22 24 24 22 22 23
52 49 49 48 44 43 42 40 37 38 39 33 29 28 30 35 34 34 35 35 32 27 25 23 23 23 22 24 26 27 28 27 25 24 20 18 15 14 17 17 18 22 23 22 22 22 21 19 20 22 21 19 18 19 20 20 21 24 24 24 23 22 26 30 28 25 24 28 29 27 29 29 24 21 20 18 16 15 15 15 14 16 20 23 24 24 22 21
53 49 46 46 44 43 41 40 43 47 45 36 33 33 33 34 35 36 38 38 35 29 24 22 23 22 19 21 23 22 24 24 23 24 23 21 19 17 18 19 19 22 23 23 24 22 21 25 27 27 24 20 18 18 21 22 22 24 25 24 22 21 24 26 25 24 26 28 26 24 29 33 28 23 22 20 17 18 19 19 18 18 22 26 28 25 23 22
52 46 43 43 43 42 41 45 52 51 45 38 35 36 34 34 37 37 39 43 39 31 28 26 25 25 22 20 20 19 22 21 19 23 25 25 25 20 20 21 21 23 24 25 28 25 22 26 28 27 25 22 20 18 20 23 21 22 22 21 19 18 19 22 23 22 22 25 23 24 30 35 31 25 23 21 18 21 23 21 21 24 28 30 28 25 27 29
49 43 41 42 44 43 40 47 55 50 45 41 37 36 34 35 37 36 45 56 47 32 32 31 26 27 25 22 20 18 22 20 16 21 23 24 29 23 21 25 24 24 25 27 32 28 22 25 27 25 24 22 23 20 19 21 23 22 19 16 17 18 17 18 18 17 18 19 21 26 30 29 27 25 22 19 20 28 33 29 31 34 33 34 32 28 28 32
46 42 41 42 45 43 39 43 49 46 46 43 36 36 34 34 37 39 55 70 53 33 33 32 27 27 26 23 20 18 22 22 16 17 19 22 29 27 23 25 25 24 25 27 31 27 23 24 25 24 24 23 23 22 20 20 22 21 17 16 19 19 21 20 17 17 19 18 21 27 28 25 24 24 21 21 24 35 42 39 41 41 36 38 40 35 30 33
45 41 41 43 44 44 43 43 43 43 45 43 38 36 34 36 40 45 63 72 51 35 37 34 29 28 26 25 22 18 20 23 20 18 19 22 27 27 23 23 25 25 25 25 26 25 24 24 24 24 23 22 22 22 22 22 22 20 17 19 20 19 24 24 21 20 21 23 24 25 25 23 23 23 23 29 35 41 44 41 41 43 42 44 46 44 39 38
44 42 42 43 43 46 47 43 42 41 40 41 39 34 35 41 45 54 67 64 50 43 41 38 34 31 29 27 25 20 18 24 24 21 21 24 25 24 24 24 26 28 28 25 23 23 23 25 27 27 24 22 22 23 23 22 21 19 18 20 21 22 26 26 23 22 23 29 27 21 22 22 24 28 29 35 43 46 46 43 42 43 45 47 47 50 48 43
43 43 43 43 43 45 46 44 45 45 41 42 39 35 39 47 55 66 65 51 48 52 47 42 39 35 34 31 27 23 20 26 27 22 21 24 24 22 24 28 28 29 31 28 25 22 22 25 28 29 28 25 24 24 24 21 19 18 19 21 23 26 28 25 24 23 26 32 25 17 20 20 25 35 37 39 45 47 45 44 46 46 47 47 47 50 51 49
42 43 43 43 41 40 42 46 49 48 46 44 41 39 44 52 60 67 60 45 45 51 47 44 40 37 38 34 29 25 23 28 30 24 20 22 25 23 22 27 29 30 32 31 28 23 22 25 26 29 31 27 25 26 25 22 20 19 21 23 26 29 29 29 29 28 28 28 23 20 22 26 36 43 43 45 47 45 44 44 46 48 49 50 49 49 51 53
42 42 41 41 40 38 39 46 50 49 45 42 43 42 50 65 65 54 50 48 46 45 43 42 40 38 36 33 32 29 26 30 31 26 21 21 26 25 21 24 27 29 32 33 30 25 26 28 25 27 28 25 25 26 26 25 22 22 22 24 28 29 30 33 32 30 29 26 26 29 29 36 49 50 47 51 49 43 46 48 49 50 51 53 52 50 51 54
42 40 41 41 39 38 37 43 49 47 43 43 46 49 61 73 64 46 46 49 47 44 42 42 42 39 35 32 34 33 31 33 31 26 24 23 27 28 24 23 26 27 28 32 33 31 35 36 30 27 25 24 27 25 24 25 24 25 24 25 29 28 28 31 30 31 35 35 35 36 36 43 53 54 52 54 51 47 50 53 52 53 53 53 53 51 51 53
42 39 41 41 39 39 36 41 48 44 44 47 49 56 65 64 55 53 54 48 44 44 41 42 43 39 37 36 37 38 39 40 35 30 29 27 27 28 26 23 24 25 26 30 33 32 34 35 32 30 26 25 31 29 23 24 28 30 28 27 29 29 26 26 29 32 36 43 43 39 44 49 51 57 58 56 57 55 55 56 54 55 55 54 55 53 52 54
44 42 44 42 41 40 36 40 46 44 47 52 53 58 57 50 50 56 53 44 43 42 40 42 41 36 34 35 39 42 43 44 41 38 35 31 27 26 25 24 23 23 25 28 31 32 35 36 31 32 33 30 32 33 27 24 30 34 34 33 33 30 28 27 31 33 34 43 43 38 50 57 54 60 62 60 62 60 58 61 60 61 61 59 58 56 56 59
47 45 47 46 44 42 38 39 43 46 52 56 57 55 47 46 52 51 46 44 43 40 40 43 39 32 30 31 38 42 42 44 44 43 41 36 32 28 24 24 23 23 24 26 30 35 40 43 38 35 40 39 35 35 31 25 28 35 38 41 39 34 30 27 34 39 39 44 41 37 51 60 58 64 64 62 67 68 66 68 68 69 68 65 62 61 63 64
49 47 47 48 50 48 43 40 43 50 55 55 55 51 47 54 55 46 44 45 41 37 37 37 33 30 29 32 38 40 40 44 46 46 45 42 42 39 32 28 27 26 25 25 30 36 37 42 43 37 41 46 40 39 38 29 26 31 37 40 43 44 40 31 33 39 43 47 42 42 56 63 63 70 70 67 71 73 73 72 70 71 71 70 67 64 64 64
49 54 54 51 55 56 49 45 45 49 51 49 49 49 51 57 51 41 41 44 41 36 33 31 29 30 32 33 37 38 39 45 48 47 48 48 49 50 45 41 38 37 37 31 30 37 40 42 44 38 39 46 44 42 45 39 31 30 34 37 40 46 47 42 38 39 43 46 43 48 64 72 73 77 78 77 75 73 73 72 68 68 71 75 74 70 66 65
52 66 67 59 60 58 49 45 45 45 44 42 42 45 50 54 46 38 39 42 39 34 30 30 30 33 37 36 39 42 43 46 47 47 51 55 55 55 52 51 49 46 44 39 34 39 42 43 46 44 42 45 46 45 46 45 40 37 36 36 36 40 44 45 45 42 42 48 50 57 70 75 74 76 78 80 78 73 71 71 68 69 72 75 77 77 74 71
59 74 73 62 58 52 43 42 42 40 39 37 41 46 48 49 43 37 37 37 36 33 29 30 33 36 40 43 45 47 48 49 48 48 55 60 61 61 58 55 53 49 47 47 45 42 41 42 47 51 48 47 47 46 43 43 46 48 47 44 41 41 41 44 49 47 42 47 55 64 78 84 79 75 75 78 79 75 71 68 67 71 75 76 79 82 78 73
68 85 76 58 50 43 39 41 39 37 35 38 47 49 46 44 39 35 37 34 32 32 29 29 34 36 39 45 47 47 50 51 50 52 57 60 62 63 61 56 54 53 54 55 53 47 46 47 49 51 49 47 47 47 46 47 49 53 55 52 50 49 46 47 54 55 50 53 56 62 79 91 86 77 77 80 80 75 69 67 68 70 74 77 79 80 75 71
76 93 76 53 44 38 37 40 38 33 33 41 51 51 46 43 37 34 35 30 26 30 31 31 34 34 37 43 45 45 49 53 54 56 56 58 60 61 61 59 55 55 58 61 59 53 51 52 50 48 48 49 50 49 50 52 52 57 61 57 56 58 55 50 51 54 59 62 62 66 80 90 87 81 79 79 77 72 70 70 69 69 72 73 72 71 71 72
85 92 72 52 43 37 37 44 45 39 38 46 55 54 47 41 37 36 37 32 26 28 30 30 33 35 35 39 43 44 47 53 56 54 53 58 61 59 58 58 58 58 61 65 65 59 57 57 53 51 53 57 59 60 62 61 60 64 66 62 59 60 59 56 50 52 62 62 59 69 83 90 89 85 82 80 77 74 72 70 68 68 71 71 67 66 68 72
91 92 76 57 43 37 41 50 53 52 52 56 61 61 54 45 38 37 41 40 34 33 32 30 32 35 33 33 39 42 44 51 56 54 54 58 62 61 58 59 60 61 62 65 65 62 63 65 62 60 63 67 69 71 76 76 73 72 70 65 62 61 60 61 58 60 66 62 62 73 84 90 90 87 84 81 76 73 70 68 68 67 67 67 65 66 67 68
95 94 79 60 43 42 50 54 56 58 62 64 65 63 60 56 46 39 42 43 38 37 35 31 32 34 33 32 35 36 38 43 48 51 55 59 63 64 62 62 63 63 63 64 61 61 67 72 72 69 69 70 71 73 75 78 80 80 75 69 67 66 64 64 67 71 72 70 74 78 77 83 89 86 83 82 78 74 72 70 68 65 63 64 65 67 67 67
99 91 75 60 52 56 63 63 62 66 69 70 69 63 60 62 55 45 44 41 37 36 35 33 35 36 35 34 34 35 35 37 41 45 50 53 55 59 63 65 65 63 65 64 63 66 73 79 78 75 71 67 65 68 74 78 80 80 80 77 73 73 72 69 73 77 74 73 82 84 78 79 87 87 86 85 81 77 77 75 70 67 64 64 66 69 70 68
98 88 73 64 66 74 76 73 73 77 75 71 67 61 61 63 58 51 45 37 35 36 37 39 39 35 35 35 36 36 33 37 46 50 50 50 51 58 63 64 63 63 66 69 71 76 82 84 82 79 77 73 68 68 73 79 79 78 81 83 80 78 76 74 77 79 76 76 83 90 87 83 86 88 86 85 81 79 80 79 74 69 67 68 72 72 70 69
94 86 76 69 73 80 79 76 76 77 73 67 63 60 59 60 57 54 47 39 40 39 37 42 41 35 36 36 39 43 37 39 52 53 50 52 56 62 67 66 64 63 67 74 79 80 82 83 83 81 81 79 77 75 72 73 76 77 80 85 85 83 80 77 79 79 79 82 86 90 91 87 85 85 84 82 81 81 81 79 73 71 70 71 73 73 70 70
94 89 82 77 78 78 75 73 72 70 65 60 59 56 55 56 56 55 49 44 46 40 34 42 43 38 39 38 43 50 45 43 51 51 48 51 54 58 63 66 65 61 62 70 76 76 75 77 78 76 77 81 82 80 77 75 75 76 80 83 84 85 83 81 82 80 80 84 86 87 89 89 87 84 82 81 81 81 80 76 74 74 74 73 72 72 73 73
92 90 88 87 86 78 72 69 66 63 57 51 52 53 53 54 52 54 53 45 42 38 33 38 40 38 41 41 43 49 46 43 46 46 46 49 49 49 50 53 56 58 60 63 65 67 68 71 71 67 71 80 81 79 81 80 77 78 82 83 83 84 85 84 84 84 84 86 84 85 90 92 89 85 82 80 79 79 78 76 76 77 77 76 75 74 74 75
91 91 89 88 84 73 65 62 59 57 51 46 49 51 52 52 48 50 51 43 41 42 38 36 37 40 43 42 42 44 42 38 37 36 38 40 39 39 39 41 45 52 58 60 60 62 61 63 64 61 65 75 76 75 79 79 80 85 87 87 86 87 88 88 88 88 89 89 89 91 92 90 88 86 83 81 79 78 78 76 77 77 77 78 78 76 75 74